EW1448 Weather Reports


Display with metric or nautical units.
time (UTC)temp
F
wind
direction
speed
MPH
gust
MPH
rain 1hr
in
rain 24hr
in
rain mn
in
humidity
%
barometer
mb
20260901033054 71 271 0.0 1.0 0.00 0.15 0.15 76 1018.3
20260901020055 74 138 0.0 0.0 0.00 0.15 0.15 64 1017.6
20260901013035 76 141 0.0 1.0 0.00 0.15 0.15 61 1017.5
20260901010032 77 141 0.0 1.0 0.00 0.15 0.15 63 1017.5
20260831233047 81 141 0.0 5.0 0.00 0.15 0.15 57 1018.5
20260831230034 81 130 0.0 4.0 0.00 0.15 0.15 56 1018.7
20260831223107 80 162 1.0 4.0 0.00 0.15 0.15 59 1019.2
20260831210029 79 137 0.0 2.0 0.00 0.15 0.15 65 1020.2
20260831203040 77 196 1.0 3.0 0.00 0.15 0.15 64 1020.6
20260831200024 76 52 1.0 3.0 0.00 0.15 0.15 66 1020.7
20260831193048 77 123 0.0 5.0 0.00 0.15 0.15 67 1020.9
20260831190058 76 76 1.0 4.0 0.00 0.15 0.15 67 1021.0
20260831183041 75 136 0.0 4.0 0.00 0.15 0.15 69 1021.3
20260831180930 76 141 0.0 3.0 0.00 0.15 0.15 69 1021.3
20260831173043 75 266 0.0 7.0 0.00 0.15 0.15 73 1021.3
20260831170032 69 12 0.0 0.0 0.00 0.19 0.15 84 1021.8
20260831163040 67 47 1.0 2.0 0.00 0.19 0.15 84 1021.8
20260831160047 68 135 1.0 4.0 0.00 0.19 0.15 82 1021.1
20260831153046 66 166 0.0 0.0 0.00 0.19 0.15 86 1021.2
20260831143059 64 323 1.0 2.0 0.00 0.19 0.15 89 1020.6
20260831140046 63 285 1.0 3.0 0.00 0.19 0.15 92 1020.1
20260831133038 62 177 0.0 0.0 0.00 0.19 0.15 93 1019.1